Location: Central Falls
(41.8900°N, 71.3929°W)
Time: 14:11:59
(UTC+00:00)

SR - Pass Details

Date: 09 December 2023
Orbit: 574 x 867 km, 66.7° (Epoch: 28 February)

Event Time Altitude Azimuth Distance (km) Brightness Sun altitude
Rises 21:55:33 0° 339° (NNW) 3,459 ? -7.6°
Reaches altitude 10° 21:59:17 10° 2° (N) 2,500 ? -8.3°
Maximum altitude 22:02:31 15° 36° (NE) 2,133 ? -8.8°
Enters shadow 22:05:06 12° 65° (ENE) 2,332 ? -9.3°
